TimeEST,TemperatureF,Dew PointF,Humidity,Sea Level PressureIn,VisibilityMPH,Wind Direction,Wind SpeedMPH,Gust SpeedMPH,PrecipitationIn,Events,Conditions,WindDirDegrees,DateUTC
12:54 AM,30.9,19.0,61,29.87,10.0,West,11.5,-,N/A,,Overcast,260,2012-12-24 05:54:00
1:54 AM,30.9,19.9,64,29.89,10.0,West,11.5,-,N/A,,Overcast,270,2012-12-24 06:54:00
2:39 AM,30.2,21.2,69,29.88,10.0,WNW,11.5,-,N/A,,Overcast,290,2012-12-24 07:39:00
2:54 AM,30.0,21.9,72,29.91,10.0,WNW,11.5,-,N/A,,Overcast,300,2012-12-24 07:54:00
3:32 AM,30.2,23.0,75,29.88,10.0,WNW,12.7,19.6,N/A,,Overcast,300,2012-12-24 08:32:00
3:54 AM,28.9,21.9,75,29.91,10.0,NW,11.5,20.7,N/A,,Overcast,310,2012-12-24 08:54:00
4:24 AM,28.4,21.2,74,29.89,10.0,WNW,16.1,24.2,N/A,,Overcast,300,2012-12-24 09:24:00
4:40 AM,28.4,21.2,74,29.89,10.0,WNW,16.1,25.3,N/A,,Overcast,300,2012-12-24 09:40:00
4:54 AM,28.0,21.0,75,29.93,10.0,WNW,15.0,23.0,N/A,,Overcast,300,2012-12-24 09:54:00
5:54 AM,28.0,19.9,72,29.96,10.0,WNW,16.1,21.9,N/A,,Overcast,290,2012-12-24 10:54:00
6:09 AM,28.4,19.4,69,29.94,10.0,NW,12.7,25.3,N/A,,Overcast,310,2012-12-24 11:09:00
6:34 AM,28.4,17.6,64,29.96,10.0,Variable,5.8,-,N/A,,Overcast,0,2012-12-24 11:34:00
6:54 AM,27.0,18.0,69,30.01,10.0,WNW,11.5,21.9,N/A,,Overcast,290,2012-12-24 11:54:00
7:03 AM,26.6,17.6,69,29.97,10.0,West,12.7,21.9,N/A,,Overcast,280,2012-12-24 12:03:00
7:54 AM,27.0,18.0,69,30.04,10.0,Variable,5.8,-,N/A,,Overcast,0,2012-12-24 12:54:00
8:54 AM,27.0,17.1,66,30.05,10.0,Variable,4.6,16.1,N/A,,Overcast,0,2012-12-24 13:54:00
9:54 AM,28.0,18.0,66,30.06,10.0,WNW,15.0,20.7,N/A,,Overcast,290,2012-12-24 14:54:00
10:54 AM,28.0,18.0,66,30.05,10.0,NW,11.5,19.6,N/A,,Overcast,310,2012-12-24 15:54:00
11:18 AM,30.2,17.6,60,30.00,10.0,NNW,9.2,-,N/A,,Scattered Clouds,330,2012-12-24 16:18:00
11:54 AM,30.0,17.1,59,30.01,10.0,WNW,6.9,17.3,N/A,,Clear,290,2012-12-24 16:54:00
12:54 PM,30.9,18.0,59,30.01,10.0,WNW,10.4,-,N/A,,Clear,290,2012-12-24 17:54:00
1:54 PM,30.9,18.0,59,30.02,10.0,WNW,8.1,-,N/A,,Clear,290,2012-12-24 18:54:00
2:54 PM,30.9,17.1,57,30.01,10.0,WNW,4.6,-,N/A,,Clear,300,2012-12-24 19:54:00
3:54 PM,30.0,17.1,59,30.02,10.0,Calm,Calm,-,N/A,,Clear,0,2012-12-24 20:54:00
4:54 PM,27.0,18.0,69,30.01,10.0,Calm,Calm,-,N/A,,Clear,0,2012-12-24 21:54:00
5:54 PM,25.0,17.1,72,30.01,10.0,Calm,Calm,-,N/A,,Clear,0,2012-12-24 22:54:00
6:54 PM,25.0,18.0,75,30.01,10.0,Calm,Calm,-,N/A,,Clear,0,2012-12-24 23:54:00
7:54 PM,24.1,19.0,81,30.01,10.0,Calm,Calm,-,N/A,,Clear,0,2012-12-25 00:54:00
8:54 PM,25.0,19.0,78,29.99,10.0,Calm,Calm,-,N/A,,Clear,0,2012-12-25 01:54:00
9:54 PM,25.0,19.9,81,29.99,10.0,Calm,Calm,-,N/A,,Clear,0,2012-12-25 02:54:00
10:54 PM,26.1,19.9,78,29.98,10.0,NE,4.6,-,N/A,,Partly Cloudy,50,2012-12-25 03:54:00
11:54 PM,27.0,19.9,75,29.96,10.0,Calm,Calm,-,N/A,,Overcast,0,2012-12-25 04:54:00